Orbital Elements at Epoch 2459200.5 (2020-Dec-17.0) TDB
Reference: JPL 13 (heliocentric ecliptic J2000)
Element | Value | Uncertainty (1-sigma) | Units |
e | .2363142708416301 | 4.9036e-08 | |
a | 2.359976219561788 | 1.3168e-08 | au |
q | 1.802280160032458 | 1.1409e-07 | au |
i | 9.817373391121716 | 7.1726e-06 | deg |
node | 344.4797074632866 | 2.4255e-05 | deg |
peri | 291.070810625404 | 3.0484e-05 | deg |
M | 276.1714470271927 | 2.1583e-05 | deg |
tp | 2459508.853822022090 (2021-Oct-21.35382202) | 8.0543e-05 | TDB |
period | 1324.219159120657 3.63 | 1.1083e-05 3.034e-08 | d yr |
n | .271858323088345 | 2.2754e-09 | deg/d |
Q | 2.917672279091119 | 1.628e-08 | au |
|
| | Orbit Determination Parameters
Additional Information
|